ARIANE 44LP DEB, 25542

Orbit data source: Space-Track

ARIANE 44LP DEB, 25542 is space debris in HEO originally from a launch on Sun, 11 Dec 1988 UTC launched from the French Guiana (FRGUI). Debris objects in space refer to the collection of defunct objects orbiting the Earth. Examples of debris include non-operational satellites, rocket bodies, and fragments generated from explosions, collisions, or faulty payload assembly.

Loading next visibility...
Identifier
25542, 1988-109J
Orbit
HEO
Country
Flag of FRFR
Related business
Manufacturer
Unknown
Mission
Spacecraft
Bus & Motor
Unknown
Mass
Unknown
Launch date (UTC)
1988-12-11 (37 years ago)
Launch vehicle
Unknown
Launch site
French Guiana (FRGUI)
Object type
Payload
Rocket body
Debris
Shape & HBR
Unknown shape, 2.0 m
Radar Cross Section
Large (>1 m²)

Expand to show TLE details & history
Last TLE update: 11 hours ago

TLE from 11 hours ago
0 ARIANE 44LP DEB
1 25542U 88109J   25310.62309492  .00001990  00000-0  64058-2 0  9994
2 25542   7.1064 279.4865 7167097 332.9977   3.0433  2.33473687233268
Epoch: 2025-11-06T14:57Z
TLE epoch observation values (Epoch: 2025-11-06T14:57:15.401Z)
Latitude
-0.00002°
Longitude
8.91778°
Altitude
728.926 km
Speed
9.775 km/s
True Right ascension
18h 37m 14s
True Declination
0° 00' 00"
Sunlit
Object was in daylight at epoch
Visualization orbit readout
Latitude
Unknown
Longitude
Unknown
Altitude
Unknown
Speed
Unknown
Apparent Right ascension
Unknown
Apparent Declination
Unknown
Sunlit
N/A
Visualization observer readout
Local Sidereal Time
21:55:37
Azimuth
Unknown
Elevation
Unknown
Doppler factor
Unknown
Orbital elements
Apogee altitude
34,835.031 km
Perigee altitude
422.833 km
Semi-major axis
24,007.069 km
Eccentricity
0.71671
Inclination
7.1064°
RAAN
279.4865°
Arg. of periapsis
332.9977°
True anomaly
25.70469°
Mean anomaly
3.0433°
Eccentric anomaly
10.59039°
Mean motion
0.58349 °/min
Orbital period
616.98 mins
BSTAR
0.0064058
Loading maneuver chart data...
Computing Atmospheric mass density...
Loading historical data...
Loading historical data...
Loading historical data...
Loading historical data...
Loading historical data...
Loading historical data...
Loading historical data...

Documentation

Showing up to 5 results
|